Weather History for GMAD - May, 2013

Change the Weather History Date:

Monday, May 27, 2013

  Actual Average Record
Temperature  
Mean Temperature 66 °F -  
Max Temperature 77 °F - - ()
Min Temperature 55 °F - - ()
Cooling Degree Days 1    
Growing Degree Days 16 (Base 50)    
Moisture  
Dew Point 52 °F    
Average Humidity 63    
Maximum Humidity 82    
Minimum Humidity 31    
Precipitation  
Precipitation 0.00 in - - ()
Sea Level Pressure  
Sea Level Pressure 29.92 in    
Wind  
Wind Speed 4 mph ()    
Max Wind Speed 17 mph    
Max Gust Speed -    
Visibility 6.1 miles    
Events      
T = Trace of Precipitation, MM = Missing Value Source: Averaged Metar Reports

Daily Weather History Graph

Daily Weather History Graph

Search for Another Location

Airport or City:

Trip Planner

Search our weather history database for the weather conditions in past years. The results will help you decide how hot, cold, wet, or windy it might be!

Date:

Astronomy

May. 27, 2013 Rise Set
Actual Time 6:37 AM WEST 8:32 PM WEST
Civil Twilight 6:10 AM WEST 8:59 PM WEST
Nautical Twilight 5:38 AM WEST 9:31 PM WEST
Astronomical Twilight 5:03 AM WEST 10:06 PM WEST
Moon 11:04 PM WEST (5/27) 8:57 AM WEST (5/27)
Length of Visible Light 14h 48m
Length of Day
13h 54m
Waning Gibbous, 92% of the Moon is Illuminated
May 27
Waning Gibbous
May 31
Last Quarter
Jun 8
New
Jun 16
First Quarter
Jun 23
Full

Hourly Weather History & Observations

Time (WEST) Temp. Dew Point Humidity Pressure Visibility Wind Dir Wind Speed Gust Speed Precip Events Conditions
12:00 AM 60.8 °F 51.8 °F 72% 29.98 in - Calm Calm - N/A   Clear
1:00 AM 60 °F 52 °F 68% 29.98 in 6 mi Calm Calm - -  
1:00 AM 60.8 °F 51.8 °F 72% 29.98 in - Calm Calm - N/A   Clear
2:00 AM 60.8 °F 51.8 °F 72% 29.95 in - Calm Calm - N/A   Clear
3:00 AM 57.2 °F 50.0 °F 77% 29.95 in - Calm Calm - N/A   Clear
4:00 AM 56 °F 50 °F 73% 29.96 in 6 mi Calm Calm - -  
4:00 AM 55.4 °F 50.0 °F 82% 29.95 in - Calm Calm - N/A   Clear
5:00 AM 57.2 °F 51.8 °F 82% 29.92 in - East 3.5 mph - N/A   Clear
6:00 AM 57.2 °F 51.8 °F 82% 29.92 in - East 3.5 mph - N/A   Clear
7:00 AM 59 °F 52 °F 71% 29.93 in 6 mi East 3.5 mph - -   Mostly Cloudy
7:00 AM 59.0 °F 51.8 °F 77% 29.92 in 6.2 mi East 3.5 mph - N/A   Mostly Cloudy
8:00 AM 60.8 °F 51.8 °F 72% 29.92 in 6.2 mi Calm Calm - N/A   Mostly Cloudy
9:00 AM 60.8 °F 51.8 °F 72% 29.95 in 6.2 mi East 3.5 mph - N/A   Mostly Cloudy
10:00 AM 63 °F 54 °F 65% 29.96 in 6 mi South 5.8 mph - -   Mostly Cloudy
10:00 AM 62.6 °F 53.6 °F 72% 29.95 in 6.2 mi South 5.8 mph - N/A   Mostly Cloudy
11:00 AM 64.4 °F 53.6 °F 68% 29.95 in 6.2 mi South 6.9 mph - N/A   Scattered Clouds
12:00 PM 66.2 °F 53.6 °F 64% 29.95 in 6.2 mi SSW 5.8 mph - N/A   Scattered Clouds
1:00 PM 69 °F 53 °F 47% 29.94 in 6 mi South 5.8 mph - -   Partly Cloudy
1:00 PM 69.8 °F 53.6 °F 56% 29.92 in 6.2 mi South 5.8 mph - N/A   Scattered Clouds
2:00 PM 71.6 °F 53.6 °F 53% 29.92 in 6.2 mi WSW 8.1 mph - N/A   Scattered Clouds
3:00 PM 75.2 °F 51.8 °F 44% 29.89 in 6.2 mi SW 8.1 mph - N/A   Scattered Clouds
4:00 PM 76 °F 51 °F 31% 29.88 in 6 mi SW 10.4 mph - -   Scattered Clouds
4:00 PM 75.2 °F 51.8 °F 44% 29.86 in 6.2 mi SW 10.4 mph - N/A   Partly Cloudy
5:00 PM 77.0 °F 50.0 °F 39% 29.86 in 6.2 mi SSW 9.2 mph - N/A   Partly Cloudy
6:00 PM 77.0 °F 50.0 °F 39% 29.83 in 6.2 mi South 11.5 mph - N/A   Partly Cloudy
7:00 PM 74 °F 51 °F 33% 29.85 in 6 mi South 11.5 mph - -  
7:00 PM 73.4 °F 50.0 °F 44% 29.83 in - South 11.5 mph - N/A   Clear
8:00 PM 68.0 °F 51.8 °F 56% 29.86 in - South 13.8 mph - N/A   Clear
9:00 PM 62.6 °F 53.6 °F 72% 29.89 in - South 17.3 mph - N/A   Clear
10:00 PM 61 °F 53 °F 67% 29.91 in 6 mi South 16.1 mph - -  
10:00 PM 60.8 °F 53.6 °F 77% 29.89 in - South 16.1 mph - N/A   Clear
11:00 PM 60.8 °F 51.8 °F 72% 29.92 in - South 11.5 mph - N/A   Clear